Location: Rometta
(44.2000°N, 10.0500°E)
Time: 11:55:22
(UTC+00:00)

Cosmos 1818 - Pass Details

Date: 16 May 2021
Orbit: 771 x 802 km, 65.0° (Epoch: 15 June)

Event Time Altitude Azimuth Distance (km) Brightness Sun altitude
Rises 21:29:42 0° 322° (NW) 3,320 8.2 -22.0°
Reaches altitude 10° 21:32:10 10° 319° (NW) 2,385 7.1 -22.2°
Maximum altitude 21:37:33 59° 241° (WSW) 923 3.8 -22.6°
Enters shadow 21:38:46 47° 193° (SSW) 1,046 3.8 -22.7°
